Temperature
18 18 18 18 18 18 18 18 18 19 19 19 20 20 19 19 19 19 19 18 18 19 18 18 18 18 18 18 18 18 18 18 18 18 18 18 18 18 18 18 18 18 18
18 18 18 18 18 18 18 18 19 19 20 20 20 20 20 20 19 19 19 18 18 18 18 18 18 18 18 18 18 18 18 17 17 17 17 17 17 17 17 17 17 17 17
18 18 18 18 18 18 18 18 19 19 20 20 20 20 20 20 19 19 19 18 18 18 18 18 18 18 18 18 18 18 18 17 17 17 17 17 17 17 17 17 17 17 17
18 18 18 18 18 18 18 19 19 19 20 20 20 20 20 20 19 19 19 18 18 18 18 18 18 18 18 17 17 17 17 17 17 17 17 17 17 17 17 17 17 17 17
18 18 18 18 18 18 18 18 18 19 19 19 19 19 19 19 19 19 19 19 18 18 18 18 18 18 18 17 17 17 17 17 17 17 17 17 17 17 17 17 17 17 17
18 18 18 18 18 18 18 18 18 18 18 19 19 19 19 19 19 19 19 19 19 18 18 18 18 18 18 18 17 17 17 17 17 17 17 17 17 17 17 17 17 17 17
17 17 18 18 18 18 18 18 18 18 18 18 18 19 19 19 19 19 19 19 19 19 18 18 18 18 18 18 18 17 17 17 17 17 17 17 17 17 17 17 16 16 16
17 17 17 17 18 18 18 18 18 18 18 18 18 18 18 19 19 19 19 19 19 19 18 18 18 18 18 18 18 17 17 17 17 17 17 17 17 17 17 16 16 16 16
16 17 17 17 17 17 18 17 17 17 17 17 17 17 17 18 18 18 18 18 18 18 19 18 18 18 18 18 17 17 17 17 17 17 17 17 17 17 17 17 16 16 16
16 16 17 17 17 17 17 17 17 17 17 17 17 17 17 18 18 18 18 18 18 18 18 18 18 18 18 17 17 17 17 17 17 17 17 17 17 17 17 17 16 16 16
16 16 16 16 16 16 17 17 17 17 17 17 17 17 17 17 17 17 17 18 18 18 18 18 18 18 18 17 17 17 17 17 17 17 17 17 17 17 17 16 16 16 16
15 15 16 16 16 16 16 17 17 16 17 17 17 17 17 17 17 17 17 17 17 17 17 18 18 18 18 17 17 17 17 17 17 17 17 16 16 16 16 16 16 16 15
15 15 15 15 16 16 16 16 16 16 16 16 16 16 16 16 17 17 17 17 17 17 17 17 17 17 17 17 17 17 17 17 17 16 16 16 16 16 16 16 16 15 15
14 14 15 15 15 16 16 16 16 16 16 16 16 16 16 16 16 16 16 16 16 16 16 16 17 17 17 17 17 16 16 16 16 16 16 16 16 16 15 15 15 15 15
14 14 14 15 15 15 15 15 16 16 16 16 16 16 16 16 16 16 16 16 15 15 16 16 16 16 16 16 16 16 16 16 16 16 16 16 16 15 15 15 15 15 15
13 14 14 14 14 15 15 15 15 15 15 15 15 15 15 15 15 15 15 15 15 15 15 15 15 16 16 16 16 15 16 16 16 16 16 16 15 15 15 15 14 14 14
13 13 13 14 14 14 14 14 15 15 15 15 15 15 15 15 15 15 15 15 15 14 14 15 15 15 15 15 15 15 15 15 15 15 15 15 15 15 15 14 14 14 14
13 13 13 13 13 13 14 14 14 14 14 14 14 14 15 15 14 14 14 14 14 14 14 14 14 14 14 14 14 14 14 15 15 15 15 15 15 14 14 14 14 14 14
12 12 12 12 12 13 13 13 13 14 14 14 14 14 14 14 14 14 14 14 14 14 14 14 14 14 14 14 14 14 14 14 14 14 14 14 14 14 14 14 14 14 14
12 12 12 12 12 13 13 13 13 13 13 13 14 14 14 14 13 13 13 13 13 13 13 13 13 13 13 13 13 14 13 14 14 14 14 14 14 14 13 13 13 13 13
11 11 12 12 12 12 13 13 13 13 13 13 13 13 13 13 13 13 13 13 13 13 13 13 13 13 13 13 13 13 13 13 13 13 13 13 13 13 13 13 13 13 13
11 11 11 11 12 12 12 12 12 12 13 13 13 13 13 13 13 13 13 13 13 13 13 13 13 13 13 13 13 13 13 13 13 12 13 12 12 12 12 12 12 12 12
10 11 11 11 11 11 12 12 12 12 12 12 12 12 12 12 13 13 13 13 12 13 13 13 13 13 13 13 13 13 13 13 13 12 12 12 12 12 12 11 11 11 11
10 10 10 10 10 10 11 11 11 11 11 12 12 12 12 12 12 12 13 12 12 13 13 13 13 13 13 13 13 13 13 13 12 12 12 11 11 11 11 11 11 11 11
10 10 10 10 10 10 10 11 11 11 11 11 12 12 12 12 12 12 13 13 13 13 13 13 13 13 13 13 13 13 13 13 12 12 12 11 10 10 10 10 10 10 10
10 9 9 9 9 9 10 10 10 10 11 11 11 12 12 12 12 12 13 13 13 12 12 13 13 13 13 13 13 13 13 13 12 11 11 11 11 10 10 9 9 9 9
Wind_Speed
5 4 5 8 11 12 11 7 9 10 9 9 11 10 8 8 11 13 12 13 11 8 7 7 6 6 5 5 5 5 5 5 5 6 6 7 8 7 8 8 7 6 5
5 4 4 3 5 8 9 8 7 6 4 2 3 4 6 7 10 14 13 13 12 10 8 7 7 7 6 6 5 5 5 5 5 5 6 6 7 7 7 6 6 5 4
5 3 4 4 3 5 6 6 7 5 4 3 2 1 2 5 7 11 15 13 12 11 10 9 7 7 7 7 6 6 6 6 6 5 5 6 6 6 6 6 5 4 3
5 4 4 4 4 3 3 2 3 2 2 3 3 3 2 3 4 6 11 14 14 12 12 11 9 7 7 7 7 7 6 7 6 6 6 6 6 6 6 5 4 3 3
6 4 4 4 4 2 2 2 2 2 1 2 3 4 3 4 5 5 6 10 14 15 14 13 12 9 8 7 8 7 8 8 7 7 6 6 6 6 5 5 4 3 3
6 4 3 5 4 3 2 2 2 2 1 1 3 3 4 4 4 4 4 4 10 14 16 15 13 11 10 9 9 8 8 8 8 8 7 7 6 6 5 4 4 3 3
8 5 5 5 5 5 5 5 3 3 2 2 1 1 1 3 4 5 4 3 4 9 16 17 14 13 11 11 10 9 8 8 8 8 8 7 7 6 5 4 4 3 2
8 8 8 7 6 6 7 7 5 3 3 2 2 1 1 2 2 4 5 5 4 5 7 13 15 16 15 13 13 12 10 9 9 8 8 7 7 6 5 4 3 3 2
7 7 8 8 8 8 8 8 8 7 6 4 3 3 4 4 2 2 3 4 4 4 5 6 10 15 17 16 16 15 13 11 10 9 8 8 7 6 6 4 3 3 3
6 6 7 8 8 8 8 9 9 7 7 6 4 4 3 3 3 2 2 2 2 3 3 3 4 10 15 17 17 19 17 14 11 10 9 8 8 7 6 5 4 3 4
5 5 5 6 8 8 8 9 9 10 9 8 6 4 4 2 2 3 2 1 2 1 1 1 1 3 10 15 17 19 20 17 14 11 10 9 8 7 6 6 5 4 5
4 5 5 5 5 6 8 9 9 10 10 10 8 6 5 4 4 4 3 3 2 1 1 1 1 1 4 10 15 23 22 19 16 13 11 10 9 8 7 6 5 5 5
4 4 3 3 3 4 5 6 8 9 10 11 10 8 7 5 4 4 5 3 2 1 1 1 1 2 2 5 11 23 21 20 17 15 12 11 10 8 7 6 6 5 5
4 5 3 2 2 2 3 3 4 6 7 9 10 9 6 6 5 5 5 5 4 3 2 2 0 1 1 4 10 15 15 18 17 15 14 12 11 9 8 6 5 5 5
5 5 4 3 1 1 1 1 2 3 4 5 5 7 6 5 6 5 4 5 6 5 6 4 2 1 1 4 10 8 9 16 17 16 14 13 12 10 9 7 5 4 4
7 6 6 5 4 3 2 1 1 1 2 3 3 3 4 4 5 5 5 4 4 5 4 3 3 2 1 3 7 5 4 12 17 16 15 14 13 11 9 7 6 4 3
9 8 9 8 7 6 5 4 3 2 2 2 3 3 4 4 4 4 4 4 4 4 4 2 2 2 3 2 2 2 4 8 11 14 14 13 12 11 9 7 6 5 3
9 8 9 9 9 9 7 6 4 3 3 3 3 3 3 3 4 4 4 5 4 4 4 3 2 2 3 4 3 2 3 6 8 11 12 12 11 10 8 7 6 5 4
10 10 10 10 10 10 10 9 6 4 3 3 3 3 4 4 4 4 4 4 4 4 3 3 3 2 2 3 3 2 2 4 8 11 12 13 13 12 11 9 9 7 6
11 11 11 11 11 11 12 11 8 5 4 3 3 3 3 4 5 5 5 5 5 4 4 4 3 2 2 2 3 3 3 4 6 10 13 15 18 18 15 14 13 12 12
11 10 10 10 10 10 11 12 9 7 5 4 4 4 4 6 6 5 5 5 5 4 4 3 3 2 3 3 4 4 6 7 7 6 8 9 12 12 13 14 15 15 16
9 9 9 9 10 10 16 17 13 7 6 5 4 4 4 6 7 8 9 7 6 4 4 3 3 4 4 4 4 5 7 7 4 4 7 8 8 9 10 12 15 17 17
8 8 8 8 8 11 17 18 17 7 4 4 4 3 3 5 5 6 7 8 6 5 2 3 3 3 4 4 5 6 6 6 6 7 8 7 7 8 10 13 16 17 17
6 5 6 7 6 11 17 18 17 6 4 5 5 5 5 5 5 5 6 7 6 5 3 3 3 2 2 4 5 6 8 9 9 6 6 5 5 6 8 11 14 16 16
5 5 5 6 7 9 16 17 16 5 4 5 6 7 6 6 7 7 7 7 7 5 7 9 9 8 9 9 8 8 10 10 8 4 3 4 5 5 5 4 11 14 15
5 4 4 5 6 7 13 17 15 6 6 5 5 6 9 7 7 6 6 7 6 4 5 6 6 6 7 8 10 7 8 9 7 4 4 4 6 5 4 3 5 9 11
Wind_Direction
226 240 229 204 197 197 202 208 211 225 221 210 198 205 188 182 146 134 144 153 155 164 175 177 175 171 168 161 154 146 141 135 132 131 133 139 139 136 136 135 131 126 121
211 227 246 224 215 209 198 201 221 244 218 229 227 188 163 163 149 140 149 158 163 168 173 179 182 181 180 178 171 162 154 150 147 146 143 143 147 147 147 147 146 143 136
209 215 240 244 238 233 221 211 227 234 193 195 236 252 153 162 160 153 153 160 166 173 177 178 178 182 187 183 181 176 168 163 162 157 156 153 155 158 161 162 162 162 165
222 200 226 238 241 248 256 235 265 256 190 181 190 206 191 155 161 156 158 165 167 172 179 181 178 180 186 186 188 183 179 173 167 166 161 159 163 167 172 176 178 183 194
241 212 207 223 238 225 230 233 233 261 239 200 202 196 191 175 177 179 186 183 165 162 167 178 178 177 181 184 183 183 180 176 174 171 166 163 166 171 174 182 191 203 219
243 237 213 210 212 226 241 231 224 256 265 227 229 209 188 183 173 182 203 184 164 164 161 167 172 179 183 182 183 181 179 176 176 176 172 167 168 170 174 183 197 208 217
231 233 233 216 203 200 207 216 212 227 245 275 260 292 242 196 181 185 195 196 192 172 162 168 176 173 176 181 178 177 176 175 175 173 169 166 166 169 174 178 182 189 197
223 230 227 219 207 201 200 206 205 206 219 227 185 186 280 296 249 199 187 194 206 171 170 178 178 170 170 170 180 177 173 170 168 165 162 160 159 161 162 163 165 166 163
237 228 226 222 209 201 201 202 201 200 205 215 204 174 177 209 246 279 217 194 210 198 187 191 184 171 167 169 169 173 170 167 166 164 162 160 157 156 155 155 156 152 145
258 241 233 227 218 208 202 201 199 198 196 209 216 214 203 162 162 220 270 245 232 215 195 193 189 179 166 159 166 172 173 171 171 171 168 164 161 159 158 156 155 155 144
276 266 247 234 223 214 206 202 199 197 202 204 198 195 207 207 195 166 197 254 280 274 312 225 174 165 156 155 160 169 173 174 175 176 175 172 170 169 168 165 165 162 154
296 282 265 248 233 222 213 208 206 202 205 205 201 198 190 181 189 180 181 193 211 280 318 336 18 63 126 148 161 170 173 175 177 178 179 178 176 174 175 173 173 169 164
314 305 290 267 246 236 225 210 208 209 208 205 203 203 202 196 175 176 175 178 179 210 329 334 359 26 83 113 151 166 173 176 180 182 182 182 181 181 181 179 181 179 176
332 330 328 308 273 251 241 215 209 213 206 209 210 201 197 196 184 181 174 164 173 199 216 240 331 39 57 103 154 162 175 182 183 185 186 185 184 184 184 184 187 182 181
356 1 359 358 353 339 265 201 200 207 202 200 201 195 194 189 183 184 176 170 170 189 212 209 195 149 117 122 156 175 176 190 188 188 187 187 187 187 187 183 175 173 175
6 15 21 26 29 37 50 76 117 173 165 165 172 179 182 176 174 174 175 176 178 173 188 191 192 182 147 141 164 186 183 188 189 188 187 186 187 188 186 183 175 169 170
14 24 25 32 36 36 38 46 49 66 97 116 128 150 160 164 164 164 163 166 171 167 180 169 173 170 155 152 143 181 167 167 181 186 183 181 180 180 178 173 166 161 159
16 25 32 34 33 29 25 31 42 54 73 92 107 124 134 137 139 144 158 166 165 165 168 168 167 157 169 168 156 176 171 166 156 169 167 165 161 156 149 142 138 134 132
20 22 31 33 32 29 21 15 20 39 67 91 111 124 129 130 132 136 140 143 144 147 137 144 156 154 150 151 148 160 129 111 123 132 129 123 121 117 112 110 108 105 103
27 23 29 31 28 29 20 10 4 15 37 63 96 104 112 120 127 129 129 130 131 131 133 136 136 141 148 153 145 142 118 106 107 112 106 105 101 95 92 92 92 93 92
30 25 27 28 25 26 16 9 357 8 22 42 76 94 99 112 119 124 129 132 132 133 140 143 150 153 163 158 165 153 133 113 99 110 110 107 99 89 81 81 86 90 90
32 29 25 25 27 21 9 11 6 357 11 31 49 73 104 109 115 111 111 117 127 141 152 154 163 168 177 169 151 144 138 128 112 112 107 95 89 84 77 80 89 91 90
36 31 19 19 28 18 11 7 359 351 15 35 46 58 93 100 99 113 119 111 92 84 121 156 156 168 167 164 152 151 146 128 117 128 111 97 90 87 80 81 89 92 92
30 31 17 15 24 22 14 7 355 5 24 40 39 45 78 87 84 100 109 97 78 55 58 106 116 110 121 142 146 142 126 110 106 111 110 106 104 95 86 78 85 92 94
15 25 23 21 28 24 17 11 3 358 26 49 52 51 66 75 83 97 107 106 97 85 74 88 96 100 98 107 120 121 126 130 128 121 106 107 125 113 99 93 92 96 99
4 15 31 35 39 34 24 20 12 13 19 34 55 67 64 65 72 82 102 111 111 116 115 104 92 93 91 97 115 126 138 140 135 125 134 119 148 139 120 124 139 119 106
Height
1541 1542 1543 1545 1546 1547 1548 1549 1551 1552 1554 1556 1558 1559 1561 1562 1563 1563 1564 1565 1565 1564 1564 1564 1565 1566 1567 1569 1570 1571 1572 1574 1575 1576 1577 1578 1580 1581 1582 1583 1584 1585 1586
1538 1539 1540 1542 1543 1544 1546 1548 1549 1551 1553 1555 1557 1558 1559 1561 1562 1562 1563 1564 1564 1563 1563 1563 1564 1565 1566 1568 1569 1571 1572 1573 1575 1576 1577 1578 1579 1581 1582 1583 1584 1585 1586
1534 1536 1537 1539 1540 1541 1543 1545 1547 1549 1551 1553 1554 1556 1558 1559 1560 1561 1561 1562 1563 1563 1563 1563 1563 1564 1565 1567 1568 1570 1571 1572 1574 1575 1576 1578 1579 1580 1581 1582 1583 1584 1585
1529 1531 1533 1535 1536 1537 1539 1541 1544 1547 1548 1550 1552 1554 1556 1557 1559 1560 1560 1561 1561 1562 1562 1563 1563 1564 1565 1566 1567 1568 1570 1571 1573 1574 1576 1577 1578 1579 1580 1581 1582 1583 1584
1526 1526 1528 1530 1532 1533 1535 1537 1540 1543 1545 1547 1549 1551 1553 1555 1556 1558 1559 1560 1560 1560 1561 1562 1562 1563 1564 1565 1566 1567 1569 1570 1572 1573 1574 1576 1577 1578 1579 1580 1581 1582 1583
1521 1522 1523 1525 1527 1529 1531 1534 1537 1539 1542 1544 1546 1548 1550 1552 1554 1555 1557 1559 1559 1559 1560 1561 1562 1562 1563 1564 1565 1566 1568 1569 1570 1572 1573 1574 1575 1577 1578 1579 1580 1581 1581
1516 1517 1518 1520 1522 1524 1526 1529 1532 1535 1538 1540 1543 1545 1546 1548 1550 1552 1554 1556 1558 1558 1558 1559 1561 1561 1562 1563 1564 1565 1567 1568 1569 1570 1572 1573 1574 1575 1576 1577 1578 1579 1580
1511 1512 1513 1514 1516 1518 1521 1524 1527 1530 1533 1536 1539 1541 1543 1545 1547 1549 1550 1552 1555 1556 1557 1558 1559 1560 1561 1562 1564 1565 1566 1567 1568 1569 1570 1572 1573 1574 1575 1576 1577 1577 1578
1505 1506 1507 1508 1510 1512 1514 1517 1521 1524 1527 1531 1534 1537 1539 1540 1542 1545 1546 1548 1551 1553 1555 1557 1558 1558 1559 1560 1562 1563 1565 1566 1567 1568 1569 1570 1571 1572 1573 1574 1575 1576 1577
1500 1500 1501 1502 1504 1506 1509 1512 1515 1517 1521 1524 1528 1531 1534 1536 1538 1540 1542 1544 1546 1549 1551 1553 1556 1557 1557 1558 1560 1562 1563 1565 1566 1567 1568 1569 1570 1571 1572 1573 1574 1575 1575
1495 1495 1496 1497 1498 1500 1503 1505 1508 1511 1514 1518 1521 1524 1528 1531 1533 1536 1537 1540 1542 1544 1546 1549 1552 1554 1555 1556 1557 1560 1562 1563 1565 1566 1567 1568 1569 1570 1571 1572 1573 1574 1574
1491 1491 1491 1492 1493 1495 1497 1500 1502 1505 1508 1511 1515 1518 1521 1524 1527 1531 1533 1535 1538 1540 1542 1545 1547 1549 1552 1553 1554 1557 1559 1561 1563 1564 1566 1567 1568 1569 1570 1571 1572 1573 1573
1488 1487 1487 1488 1489 1490 1493 1495 1497 1500 1502 1505 1508 1511 1515 1518 1521 1525 1529 1532 1534 1537 1539 1541 1543 1545 1547 1550 1552 1554 1556 1559 1561 1562 1564 1566 1567 1568 1569 1570 1571 1571 1572
1486 1485 1485 1485 1485 1487 1489 1491 1493 1495 1497 1500 1503 1506 1509 1512 1516 1519 1522 1526 1529 1532 1534 1537 1539 1541 1544 1546 1548 1551 1553 1556 1558 1560 1562 1564 1565 1567 1568 1569 1569 1570 1571
1486 1485 1484 1483 1484 1485 1486 1488 1489 1491 1494 1496 1498 1501 1504 1507 1510 1513 1516 1520 1524 1526 1529 1532 1535 1537 1540 1542 1544 1547 1550 1552 1555 1557 1559 1561 1563 1565 1566 1567 1568 1569 1569
1487 1486 1485 1484 1484 1484 1485 1486 1488 1489 1491 1493 1495 1497 1500 1502 1504 1508 1511 1514 1518 1522 1524 1527 1530 1533 1535 1538 1541 1543 1546 1548 1551 1553 1556 1558 1561 1562 1564 1565 1566 1567 1568
1490 1488 1487 1486 1485 1485 1485 1486 1487 1488 1489 1491 1492 1494 1496 1499 1501 1504 1507 1510 1514 1517 1520 1523 1525 1528 1531 1534 1536 1539 1542 1545 1547 1550 1553 1556 1558 1560 1562 1563 1564 1565 1565
1493 1491 1489 1488 1487 1486 1486 1487 1487 1488 1489 1490 1491 1492 1494 1496 1498 1501 1504 1507 1509 1513 1516 1519 1521 1524 1527 1530 1533 1536 1539 1541 1544 1547 1550 1553 1555 1557 1559 1561 1562 1563 1563
1496 1494 1492 1491 1489 1488 1488 1487 1488 1489 1489 1490 1491 1492 1493 1495 1496 1499 1501 1504 1506 1509 1512 1515 1518 1521 1524 1527 1530 1533 1536 1539 1541 1544 1547 1550 1553 1555 1557 1559 1560 1560 1561
1498 1496 1494 1493 1491 1490 1489 1489 1488 1489 1490 1490 1491 1492 1493 1494 1496 1498 1500 1502 1505 1508 1510 1513 1516 1519 1522 1524 1528 1531 1534 1536 1539 1542 1545 1548 1551 1553 1555 1556 1557 1558 1558
1500 1498 1496 1494 1493 1491 1490 1490 1490 1490 1490 1491 1491 1492 1493 1494 1496 1498 1500 1501 1504 1506 1509 1511 1514 1517 1519 1522 1525 1529 1532 1535 1538 1541 1543 1547 1549 1551 1553 1554 1555 1556 1556
1502 1500 1498 1496 1494 1493 1492 1491 1491 1491 1491 1491 1492 1493 1494 1495 1496 1498 1499 1501 1504 1506 1508 1510 1512 1515 1518 1521 1523 1527 1530 1533 1537 1541 1543 1545 1548 1550 1551 1553 1554 1554 1554
1505 1502 1500 1498 1496 1495 1493 1492 1492 1492 1492 1492 1493 1494 1495 1496 1497 1498 1500 1502 1504 1506 1508 1510 1512 1514 1516 1519 1522 1525 1528 1532 1535 1539 1542 1544 1547 1549 1551 1552 1553 1554 1554
1507 1505 1502 1500 1498 1496 1495 1494 1493 1493 1493 1494 1494 1495 1495 1496 1498 1499 1501 1502 1504 1506 1508 1510 1511 1513 1515 1518 1521 1524 1527 1531 1535 1539 1542 1544 1547 1549 1551 1552 1553 1554 1555
1509 1507 1505 1503 1500 1498 1496 1495 1494 1494 1495 1495 1495 1496 1497 1498 1499 1501 1502 1503 1505 1507 1509 1511 1512 1514 1516 1518 1520 1523 1526 1530 1534 1538 1541 1543 1546 1548 1551 1552 1553 1554 1555
1511 1509 1507 1505 1503 1500 1498 1497 1496 1495 1496 1496 1496 1497 1498 1499 1500 1502 1504 1505 1507 1509 1510 1512 1513 1515 1517 1519 1521 1523 1526 1529 1533 1537 1540 1543 1545 1548 1551 1553 1554 1554 1555